Date String (YYYY-MM-DD hh:mm:ss) UTC,Instrument flags,absolute air pressure of the measurement (hPa),sample flow rate (lpm),inlet stack bypass flow (lpm),air temperature of the measurement (°C),ambient temperature measured by the external sensor (°C),aerosol sample conditioner tube jacket temperature (°C),OPC LED temperature (°C),internal box temperature (°C),relative humidity of the measurement (%),span deviation,mass concentration of particles derived from Lorenz-Mie calculation of OPC scattering (μg/m³),mass concentration of particles derived from Lorenz-Mie calculation of OPC scattering (μg/m³),mass concentration of particles derived from Lorenz-Mie calculation of OPC scattering (μg/m³)
DateTimeUTC,F1_M11,P_M11,Q1_M11,Q2_M11,T1_M11,T2_M11,T3_M11,T4_M11,T5_M11,U1_M11,ZSPAN_M11,X2_M11,X0_M11,X1_M11
2024-03-31 04:00:00,SystemResetWarning,0820.0,5.01,000.00,025.0,024.1,000.0,033.7,026.8,17.7,0000.0,0004.37,0009.39,0003.74
2024-03-31 04:01:00,SystemResetWarning,0819.9,5.00,000.00,025.0,024.1,000.0,033.6,026.8,17.7,0000.0,0004.36,0009.35,0003.75
2024-03-31 04:02:00,SystemResetWarning,0819.9,5.01,000.00,025.0,024.1,000.0,033.6,026.8,17.6,0000.0,0004.35,0009.20,0003.75
2024-03-31 04:03:00,SystemResetWarning,0820.0,5.00,000.00,025.0,024.1,000.0,033.6,026.8,17.7,0000.0,0004.39,0008.49,0003.75
2024-03-31 04:04:00,SystemResetWarning,0820.2,5.00,000.00,025.0,024.1,000.0,033.6,026.8,18.0,0000.0,0004.36,0008.36,0003.73
2024-03-31 04:05:00,SystemResetWarning,0820.0,4.99,000.00,025.0,024.1,000.0,033.6,026.8,17.8,0000.0,0004.34,0008.47,0003.72
2024-03-31 04:06:00,SystemResetWarning,0820.2,4.99,000.00,025.0,024.1,000.0,033.6,026.8,17.7,0000.0,0004.28,0009.47,0003.70
2024-03-31 04:07:00,SystemResetWarning,0819.9,5.00,000.00,025.0,024.1,000.0,033.6,026.8,17.7,0000.0,0004.27,0009.87,0003.70
2024-03-31 04:08:00,SystemResetWarning,0819.9,4.99,000.00,025.0,024.1,000.0,033.6,026.8,17.7,0000.0,0004.23,0009.79,0003.70
2024-03-31 04:09:00,SystemResetWarning,0819.9,4.99,000.00,025.0,024.1,000.0,033.6,026.8,17.7,0000.0,0004.29,0009.80,0003.73
2024-03-31 04:10:00,SystemResetWarning,0819.9,5.00,000.00,025.0,024.1,000.0,033.6,026.8,17.7,0000.0,0004.31,0009.75,0003.73
2024-03-31 04:11:00,SystemResetWarning,0819.9,5.00,000.00,025.0,024.1,000.0,033.6,026.8,17.8,0000.0,0004.31,0009.97,0003.72
2024-03-31 04:12:00,SystemResetWarning,0820.1,5.00,000.00,025.0,024.1,000.0,033.6,026.8,18.0,0000.0,0004.32,0010.02,0003.71
2024-03-31 04:13:00,SystemResetWarning,0819.8,5.01,000.00,025.0,024.1,000.0,033.6,026.8,18.1,0000.0,0004.31,0010.05,0003.70
2024-03-31 04:14:00,SystemResetWarning,0819.8,5.00,000.00,025.0,024.1,000.0,033.6,026.8,18.2,0000.0,0004.30,0010.07,0003.70
2024-03-31 04:15:00,SystemResetWarning,0819.9,5.00,000.00,025.0,024.1,000.0,033.6,026.8,18.2,0000.0,0004.29,0010.06,0003.71
2024-03-31 04:16:00,SystemResetWarning,0819.8,5.00,000.00,024.9,024.1,000.0,033.6,026.8,18.2,0000.0,0004.35,0010.73,0003.74
2024-03-31 04:17:00,SystemResetWarning,0819.8,5.00,000.00,024.9,024.1,000.0,033.6,026.8,18.3,0000.0,0004.35,0009.55,0003.76
2024-03-31 04:18:00,SystemResetWarning,0819.7,5.00,000.00,024.9,024.1,000.0,033.6,026.8,18.1,0000.0,0004.34,0008.75,0003.77
2024-03-31 04:19:00,SystemResetWarning,0819.7,4.99,000.00,024.9,024.1,000.0,033.6,026.8,18.4,0000.0,0004.35,0008.81,0003.78
2024-03-31 04:20:00,SystemResetWarning,0819.7,5.00,000.00,024.9,024.1,000.0,033.6,026.8,18.6,0000.0,0004.36,0008.96,0003.79
2024-03-31 04:21:00,SystemResetWarning,0819.7,5.00,000.00,024.9,024.1,000.0,033.6,026.8,18.7,0000.0,0004.35,0008.98,0003.80
2024-03-31 04:22:00,SystemResetWarning,0819.8,5.00,000.00,024.9,024.1,000.0,033.6,026.8,18.7,0000.0,0004.36,0008.86,0003.80
2024-03-31 04:23:00,SystemResetWarning,0819.8,5.00,000.00,024.9,024.1,000.0,033.6,026.8,18.0,0000.0,0004.34,0009.09,0003.79
2024-03-31 04:24:00,SystemResetWarning,0819.7,4.99,000.00,024.9,024.1,000.0,033.6,026.8,17.9,0000.0,0004.31,0009.02,0003.76
2024-03-31 04:25:00,SystemResetWarning,0819.7,5.00,000.00,024.9,024.1,000.0,033.6,026.8,18.6,0000.0,0004.26,0008.87,0003.73
2024-03-31 04:26:00,SystemResetWarning,0819.7,5.00,000.00,024.9,024.1,000.0,033.6,026.8,18.4,0000.0,0004.24,0008.96,0003.71
2024-03-31 04:27:00,SystemResetWarning,0819.7,5.00,000.00,024.9,024.1,000.0,033.6,026.8,18.0,0000.0,0004.19,0008.22,0003.67
2024-03-31 04:28:00,SystemResetWarning,0819.8,5.01,000.00,024.9,024.1,000.0,033.6,026.8,17.8,0000.0,0004.14,0008.11,0003.63
2024-03-31 04:29:00,SystemResetWarning,0820.2,5.00,000.00,024.9,024.0,000.0,033.6,026.8,17.7,0000.0,0004.12,0008.10,0003.59
2024-03-31 04:30:00,SystemResetWarning,0819.9,4.98,000.00,024.9,024.1,000.0,033.5,026.7,17.7,0000.0,0004.10,0007.94,0003.56
2024-03-31 04:31:00,SystemResetWarning,0820.1,5.00,000.00,024.9,024.1,000.0,033.5,026.7,17.6,0000.0,0004.08,0008.46,0003.52
2024-03-31 04:32:00,SystemResetWarning,0820.1,5.01,000.00,024.9,024.0,000.0,033.5,026.7,17.6,0000.0,0004.05,0009.32,0003.49
2024-03-31 04:33:00,SystemResetWarning,0820.2,5.01,000.00,024.9,024.0,000.0,033.5,026.7,17.7,0000.0,0004.01,0009.56,0003.48
2024-03-31 04:34:00,SystemResetWarning,0820.2,4.98,000.00,024.9,024.0,000.0,033.5,026.7,17.7,0000.0,0004.02,0009.24,0003.49
2024-03-31 04:35:00,SystemResetWarning,0820.3,4.99,000.00,024.8,024.0,000.0,033.5,026.7,17.8,0000.0,0004.03,0009.46,0003.51
2024-03-31 04:36:00,SystemResetWarning,0820.2,5.00,000.00,024.8,024.0,000.0,033.5,026.7,17.9,0000.0,0004.07,0009.64,0003.53
2024-03-31 04:37:00,SystemResetWarning,0820.1,5.00,000.00,024.8,024.0,000.0,033.5,026.7,18.0,0000.0,0004.09,0009.67,0003.54
2024-03-31 04:38:00,SystemResetWarning,0820.3,5.01,000.00,024.8,024.0,000.0,033.5,026.7,18.0,0000.0,0004.10,0009.77,0003.55
2024-03-31 04:39:00,SystemResetWarning,0820.1,5.00,000.00,024.8,024.0,000.0,033.5,026.7,18.0,0000.0,0004.15,0009.91,0003.60
2024-03-31 04:40:00,SystemResetWarning,0820.0,4.99,000.00,024.8,023.9,000.0,033.5,026.7,18.0,0000.0,0004.20,0010.05,0003.64
2024-03-31 04:41:00,SystemResetWarning,0820.1,4.99,000.00,024.8,023.9,000.0,033.5,026.6,18.0,0000.0,0004.28,0011.23,0003.67
2024-03-31 04:42:00,SystemResetWarning,0820.1,4.99,000.00,024.8,023.9,000.0,033.5,026.6,18.0,0000.0,0004.30,0010.60,0003.69
2024-03-31 04:43:00,SystemResetWarning,0819.7,5.01,000.00,024.8,023.9,000.0,033.5,026.6,18.0,0000.0,0004.34,0009.72,0003.73
2024-03-31 04:44:00,SystemResetWarning,0819.8,5.01,000.00,024.8,023.9,000.0,033.4,026.6,18.0,0000.0,0004.37,0009.40,0003.77
2024-03-31 04:45:00,SystemResetWarning,0819.8,5.00,000.00,024.7,023.9,000.0,033.4,026.6,17.9,0000.0,0004.36,0009.38,0003.78
2024-03-31 04:46:00,SystemResetWarning,0819.9,5.00,000.00,024.7,023.9,000.0,033.4,026.6,18.4,0000.0,0004.38,0009.91,0003.79
2024-03-31 04:47:00,SystemResetWarning,0819.6,5.00,000.00,024.7,023.9,000.0,033.4,026.6,18.5,0000.0,0004.40,0009.90,0003.79
2024-03-31 04:48:00,SystemResetWarning,0819.9,4.99,000.00,024.7,023.9,000.0,033.4,026.6,18.4,0000.0,0004.39,0010.30,0003.81
2024-03-31 04:49:00,SystemResetWarning,0819.7,4.99,000.00,024.7,023.9,000.0,033.4,026.6,18.4,0000.0,0004.43,0010.32,0003.83
2024-03-31 04:50:00,SystemResetWarning,0819.5,5.00,000.00,024.7,023.9,000.0,033.4,026.6,18.3,0000.0,0004.45,0010.35,0003.83
2024-03-31 04:51:00,SystemResetWarning,0819.7,5.00,000.00,024.7,023.8,000.0,033.4,026.6,18.1,0000.0,0004.42,0010.26,0003.83
2024-03-31 04:52:00,SystemResetWarning,0819.6,5.01,000.00,024.7,023.8,000.0,033.4,026.5,18.0,0000.0,0004.38,0009.35,0003.81
2024-03-31 04:53:00,SystemResetWarning,0819.5,5.01,000.00,024.7,023.8,000.0,033.4,026.5,18.0,0000.0,0004.36,0008.98,0003.82
2024-03-31 04:54:00,SystemResetWarning,0819.5,5.00,000.00,024.7,023.8,000.0,033.4,026.5,18.1,0000.0,0004.36,0008.95,0003.82
2024-03-31 04:55:00,SystemResetWarning,0819.5,4.98,000.00,024.6,023.8,000.0,033.4,026.5,18.1,0000.0,0004.36,0008.92,0003.80
2024-03-31 04:56:00,SystemResetWarning,0819.5,5.00,000.00,024.6,023.8,000.0,033.3,026.5,18.1,0000.0,0004.39,0009.70,0003.78
2024-03-31 04:57:00,SystemResetWarning,0819.5,5.02,000.00,024.6,023.8,000.0,033.3,026.5,18.1,0000.0,0004.36,0009.32,0003.77
2024-03-31 04:58:00,SystemResetWarning,0819.5,4.98,000.00,024.6,023.8,000.0,033.3,026.5,18.1,0000.0,0004.33,0009.12,0003.76
2024-03-31 04:59:00,SystemResetWarning,0819.5,4.99,000.00,024.6,023.7,000.0,033.3,026.5,18.0,0000.0,0004.33,0009.55,0003.75
